CW2360 Weather Reports


Display with metric or nautical units.
time (UTC)temp
F
wind
direction
speed
MPH
gust
MPH
rain 1hr
in
rain 24hr
in
rain mn
in
humidity
%
barometer
mb
20260504220020 65 84 10.0 18.0 0.00 0.00 0.00 33 1004.3
20260504214524 64 39 8.0 18.0 0.00 0.00 0.00 33 1004.3
20260504213021 65 47 6.0 15.0 0.00 0.00 0.00 34 1004.3
20260504211521 65 62 9.0 14.0 0.00 0.00 0.00 33 1004.3
20260504210032 65 44 7.0 15.0 0.00 0.00 0.00 34 1004.5
20260504204529 65 5 9.0 17.0 0.00 0.00 0.00 33 1004.6
20260504203023 65 52 8.0 22.0 0.00 0.00 0.00 34 1004.6
20260504201514 65 48 5.0 16.0 0.00 0.00 0.00 34 1004.4
20260504200014 65 65 9.0 19.0 0.00 0.00 0.00 33 1004.3
20260504194514 64 56 10.0 22.0 0.00 0.00 0.00 33 1004.4
20260504193013 65 23 9.0 17.0 0.00 0.00 0.00 34 1004.5
20260504191512 64 59 10.0 17.0 0.00 0.00 0.00 33 1004.4
20260504190011 64 35 11.0 25.0 0.00 0.00 0.00 33 1004.5
20260504184510 65 57 9.0 19.0 0.00 0.00 0.00 32 1004.2
20260504183010 64 40 12.0 21.0 0.00 0.00 0.00 33 1004.1
20260504181508 63 54 9.0 22.0 0.00 0.00 0.00 34 1004.0
20260504180008 64 342 8.0 20.0 0.00 0.00 0.00 34 1003.9
20260504174508 64 16 10.0 19.0 0.00 0.00 0.00 35 1003.9
20260504173006 64 42 9.0 20.0 0.00 0.00 0.00 35 1003.5
20260504171504 63 42 9.0 21.0 0.00 0.00 0.00 37 1003.5
20260504081535 43 107 2.0 4.0 0.00 0.00 0.00 71 1003.7
20260504050009 52 108 0.0 2.0 0.00 0.00 0.00 56 1005.0
20260504044514 53 108 1.0 3.0 0.00 0.00 0.00 53 1005.0
20260504043013 55 108 0.0 2.0 0.00 0.00 0.00 51 1005.1
20260504041530 56 108 1.0 3.0 0.00 0.00 0.00 48 1005.2
20260504040015 58 108 0.0 2.0 0.00 0.00 0.00 47 1005.3
20260504034510 59 108 0.0 2.0 0.00 0.00 0.00 44 1005.2
20260504033007 59 108 0.0 3.0 0.00 0.00 0.00 44 1005.0
20260504031507 59 108 1.0 3.0 0.00 0.00 0.00 44 1004.9
20260504030006 60 109 1.0 5.0 0.00 0.00 0.00 43 1004.9
20260504024506 61 107 0.0 7.0 0.00 0.00 0.00 44 1005.1
20260504023006 61 92 2.0 10.0 0.00 0.00 0.00 43 1005.4
20260504021504 62 97 6.0 9.0 0.00 0.00 0.00 42 1005.4
20260504020008 63 97 3.0 8.0 0.00 0.00 0.00 42 1005.6
20260504014503 63 40 2.0 5.0 0.00 0.00 0.00 40 1005.7
20260504013003 64 71 6.0 11.0 0.00 0.00 0.00 40 1006.0
20260504011502 64 14 8.0 14.0 0.00 0.00 0.00 39 1005.5
20260504010002 64 5 8.0 18.0 0.00 0.00 0.00 38 1004.7
20260504004505 65 42 9.0 23.0 0.00 0.00 0.00 36 1004.3
20260504003001 73 328 3.0 7.0 0.00 0.00 0.00 19 1004.0
20260504001601 73 213 2.0 16.0 0.00 0.00 0.00 20 1004.1
20260504000107 74 346 2.0 5.0 0.00 0.00 0.00 18 1004.0
20260503234600 75 339 2.0 6.0 0.00 0.00 0.00 18 1004.0
20260503233059 75 12 3.0 8.0 0.00 0.00 0.00 17 1004.1
20260503231558 74 252 1.0 6.0 0.00 0.00 0.00 18 1004.2
20260503230104 75 355 1.0 6.0 0.00 0.00 0.00 18 1004.0
20260503224601 75 25 2.0 8.0 0.00 0.00 0.00 19 1004.5
20260503223056 75 223 1.0 6.0 0.00 0.00 0.00 20 1004.7
20260503221603 74 129 3.0 11.0 0.00 0.00 0.00 20 1005.1